• In Belgium
  • List of Countries
  • For 7 days
  • Water Temperature
  • Satellite Maps
  • Weather Map
  • Weather Widgets
  • user-avatar
    Login

    Hourly Weather Canberra

    Today, 22 April, Sunday

    Time Temperature Precipitation Wind Pressure Humidity
    00:00 +14°C° 0 mm 1 mps 714 mmHg 93%
    01:00 +14°C° 0 mm 1 mps 714 mmHg 92%
    02:00 +14°C° 0 mm 1 mps 713 mmHg 94%
    03:00 +13°C° 0 mm 1 mps 713 mmHg 95%
    04:00 +13°C° 0 mm 1 mps 713 mmHg 96%
    05:00 +13°C° 0 mm 1 mps 713 mmHg 96%
    06:00 +12°C° 0 mm 1 mps 713 mmHg 96%
    07:00 +12°C° 0 mm 1 mps 714 mmHg 96%
    08:00 +14°C° 0 mm 1 mps 714 mmHg 85%
    09:00 +18°C° 0 mm 1 mps 714 mmHg 74%
    10:00 +20°C° 0 mm 1 mps 715 mmHg 63%
    11:00 +21°C° 0.2 mm 1 mps 714 mmHg 59%
    12:00 +22°C° 0.2 mm 1 mps 714 mmHg 54%
    13:00 +24°C° 0.2 mm 1 mps 714 mmHg 50%
    14:00 +23°C° 0.8 mm 1 mps 713 mmHg 53%
    15:00 +23°C° 0.8 mm 1 mps 713 mmHg 56%
    16:00 +22°C° 0.8 mm 1 mps 713 mmHg 60%
    17:00 +20°C° 0.5 mm 1 mps 713 mmHg 68%
    18:00 +18°C° 0.5 mm 1 mps 713 mmHg 76%
    19:00 +15°C° 0.5 mm 1 mps 712 mmHg 85%
    20:00 +14°C° 0 mm 1 mps 713 mmHg 87%
    21:00 +13°C° 0 mm 1 mps 713 mmHg 90%
    22:00 +13°C° 0 mm 1 mps 713 mmHg 92%
    23:00 +12°C° 0 mm 1 mps 713 mmHg 93%

    Tomorrow, 23 April, Monday

    Time Temperature Precipitation Wind Pressure Humidity
    00:00 +12°C° 0 mm 1 mps 713 mmHg 94%
    01:00 +12°C° 0 mm 1 mps 713 mmHg 94%
    02:00 +12°C° 0 mm 1 mps 712 mmHg 94%
    03:00 +11°C° 0 mm 1 mps 712 mmHg 94%
    04:00 +11°C° 0 mm 1 mps 712 mmHg 94%
    05:00 +11°C° 0 mm 1 mps 712 mmHg 93%
    06:00 +11°C° 0 mm 1 mps 712 mmHg 93%
    07:00 +11°C° 0 mm 1 mps 712 mmHg 92%
    08:00 +13°C° 0 mm 0 mps 713 mmHg 80%
    09:00 +17°C° 0 mm 0 mps 713 mmHg 68%
    10:00 +20°C° 0 mm 0 mps 714 mmHg 56%
    11:00 +21°C° 0 mm 0 mps 714 mmHg 49%
    12:00 +23°C° 0 mm 0 mps 713 mmHg 42%
    13:00 +26°C° 0 mm 1 mps 713 mmHg 35%
    14:00 +26°C° 0 mm 1 mps 713 mmHg 36%
    15:00 +25°C° 0 mm 1 mps 712 mmHg 37%
    16:00 +24°C° 0 mm 1 mps 712 mmHg 38%
    17:00 +22°C° 0 mm 1 mps 712 mmHg 48%
    18:00 +19°C° 0 mm 1 mps 712 mmHg 58%
    19:00 +16°C° 0 mm 1 mps 712 mmHg 68%
    20:00 +15°C° 0 mm 1 mps 712 mmHg 73%
    21:00 +14°C° 0 mm 1 mps 712 mmHg 78%
    22:00 +13°C° 0 mm 1 mps 713 mmHg 83%
    23:00 +13°C° 0 mm 1 mps 712 mmHg 85%

    Day after tomorrow, 24 April, Tuesday

    Time Temperature Precipitation Wind Pressure Humidity
    00:00 +13°C° 0 mm 1 mps 712 mmHg 88%
    01:00 +12°C° 0 mm 1 mps 712 mmHg 90%
    02:00 +12°C° 0 mm 1 mps 712 mmHg 90%
    03:00 +12°C° 0 mm 1 mps 711 mmHg 90%
    04:00 +12°C° 0 mm 1 mps 711 mmHg 90%
    05:00 +12°C° 0 mm 1 mps 711 mmHg 88%
    06:00 +12°C° 0 mm 1 mps 712 mmHg 87%
    07:00 +12°C° 0 mm 1 mps 712 mmHg 85%
    08:00 +15°C° 0 mm 1 mps 712 mmHg 71%
    09:00 +20°C° 0 mm 1 mps 713 mmHg 57%
    10:00 +23°C° 0 mm 1 mps 713 mmHg 43%
    11:00 +24°C° 0 mm 1 mps 713 mmHg 38%
    12:00 +26°C° 0 mm 2 mps 712 mmHg 33%
    13:00 +27°C° 0 mm 2 mps 712 mmHg 29%
    14:00 +27°C° 0 mm 2 mps 712 mmHg 30%
    15:00 +26°C° 0 mm 2 mps 711 mmHg 31%
    16:00 +26°C° 0 mm 2 mps 711 mmHg 32%
    17:00 +23°C° 0 mm 2 mps 711 mmHg 39%
    18:00 +20°C° 0 mm 2 mps 711 mmHg 47%
    19:00 +18°C° 0 mm 1 mps 711 mmHg 54%
    20:00 +16°C° 0 mm 1 mps 711 mmHg 55%
    21:00 +16°C° 0 mm 1 mps 711 mmHg 56%
    22:00 +15°C° 0 mm 1 mps 711 mmHg 57%
    23:00 +15°C° 0 mm 1 mps 711 mmHg 56%

    25 April, Wednesday

    Time Temperature Precipitation Wind Pressure Humidity
    00:00 +15°C° 0 mm 1 mps 710 mmHg 56%
    01:00 +15°C° 0 mm 1 mps 710 mmHg 56%
    02:00 +14°C° 0 mm 1 mps 710 mmHg 55%
    03:00 +14°C° 0 mm 1 mps 710 mmHg 55%
    04:00 +14°C° 0 mm 1 mps 709 mmHg 54%
    05:00 +14°C° 0 mm 1 mps 710 mmHg 54%
    06:00 +14°C° 0 mm 1 mps 710 mmHg 54%
    07:00 +14°C° 0 mm 1 mps 710 mmHg 53%
    08:00 +18°C° 0 mm 1 mps 711 mmHg 46%
    09:00 +22°C° 0 mm 1 mps 711 mmHg 39%
    10:00 +25°C° 0 mm 1 mps 712 mmHg 32%
    11:00 +26°C° 0 mm 2 mps 711 mmHg 31%
    12:00 +26°C° 0 mm 2 mps 711 mmHg 29%
    13:00 +27°C° 0 mm 3 mps 710 mmHg 28%
    14:00 +26°C° 0 mm 3 mps 710 mmHg 31%
    15:00 +26°C° 0 mm 3 mps 710 mmHg 34%
    16:00 +25°C° 0 mm 3 mps 709 mmHg 37%
    17:00 +23°C° 0 mm 2 mps 709 mmHg 42%
    18:00 +20°C° 0 mm 2 mps 710 mmHg 48%
    19:00 +20°C° 0 mm 1 mps 710 mmHg 54%
    20:00 +19°C° 0 mm 1 mps 710 mmHg 56%
    21:00 +18°C° 0 mm 1 mps 710 mmHg 58%
    22:00 +18°C° 0 mm 1 mps 710 mmHg 59%
    23:00 +16°C° 0.1 mm 1 mps 710 mmHg 62%

    26 April, Thursday

    Time Temperature Precipitation Wind Pressure Humidity
    00:00 +16°C° 0.1 mm 1 mps 710 mmHg 65%
    01:00 +16°C° 0.1 mm 1 mps 710 mmHg 67%
    02:00 +15°C° 0 mm 1 mps 710 mmHg 70%
    03:00 +15°C° 0 mm 1 mps 709 mmHg 72%
    04:00 +14°C° 0 mm 1 mps 709 mmHg 74%
    05:00 +14°C° 0 mm 1 mps 710 mmHg 77%
    06:00 +13°C° 0 mm 1 mps 710 mmHg 79%
    07:00 +13°C° 0 mm 1 mps 711 mmHg 82%
    08:00 +16°C° 0 mm 1 mps 711 mmHg 69%
    09:00 +19°C° 0 mm 1 mps 712 mmHg 57%
    10:00 +21°C° 0 mm 2 mps 712 mmHg 45%
    11:00 +23°C° 0 mm 2 mps 712 mmHg 41%
    12:00 +24°C° 0 mm 2 mps 712 mmHg 37%
    13:00 +25°C° 0 mm 2 mps 712 mmHg 33%
    14:00 +24°C° 0 mm 2 mps 712 mmHg 36%
    15:00 +23°C° 0 mm 2 mps 712 mmHg 39%
    16:00 +21°C° 0 mm 2 mps 711 mmHg 42%
    17:00 +19°C° 0 mm 2 mps 712 mmHg 54%
    18:00 +17°C° 0 mm 2 mps 712 mmHg 66%
    19:00 +14°C° 0 mm 2 mps 712 mmHg 78%
    20:00 +14°C° 0 mm 1 mps 713 mmHg 81%
    21:00 +14°C° 0 mm 1 mps 713 mmHg 85%
    22:00 +13°C° 0 mm 1 mps 713 mmHg 89%
    23:00 +13°C° 0 mm 1 mps 713 mmHg 91%

    27 April, Friday

    Time Temperature Precipitation Wind Pressure Humidity
    00:00 +13°C° 0 mm 1 mps 713 mmHg 92%
    01:00 +13°C° 0 mm 1 mps 713 mmHg 93%
    02:00 +13°C° 0 mm 1 mps 713 mmHg 94%
    03:00 +12°C° 0 mm 1 mps 713 mmHg 94%
    04:00 +12°C° 0 mm 1 mps 713 mmHg 95%
    05:00 +12°C° 0 mm 1 mps 713 mmHg 95%
    06:00 +10°C° 0 mm 0 mps 713 mmHg 96%
    07:00 +10°C° 0 mm 0 mps 714 mmHg 96%
    08:00 +12°C° 0 mm 0 mps 714 mmHg 85%
    09:00 +15°C° 0 mm 0 mps 714 mmHg 74%
    10:00 +17°C° 0 mm 0 mps 715 mmHg 63%
    11:00 +20°C° 0 mm 1 mps 714 mmHg 58%
    12:00 +21°C° 0 mm 1 mps 714 mmHg 53%
    13:00 +21°C° 0 mm 1 mps 714 mmHg 47%
    14:00 +21°C° 0 mm 1 mps 714 mmHg 48%
    15:00 +21°C° 0 mm 1 mps 713 mmHg 49%
    16:00 +19°C° 0 mm 2 mps 713 mmHg 50%
    17:00 +17°C° 0 mm 2 mps 714 mmHg 60%
    18:00 +15°C° 0 mm 2 mps 714 mmHg 69%
    19:00 +14°C° 0 mm 2 mps 715 mmHg 79%
    20:00 +13°C° 0 mm 2 mps 715 mmHg 83%
    21:00 +10°C° 0 mm 2 mps 715 mmHg 88%
    22:00 +9°C° 0 mm 2 mps 715 mmHg 93%
    23:00 +9°C° 0 mm 2 mps 715 mmHg 93%
    Show more